STARLINK-1647 (47978 NORAD) Tracking and Keplerian Element Data

This shows tracking and keplerian element data for the satellite.

Feedback or suggestion? Click here.




ElementValue
Catalog47978
NameSTARLINK-1647
Epoch Orbit1520
Epoch Day173.89971118
Epoch Year2021
RAAN141.1462
Inclination53.0572
Eccentricity0.0001122
Argument of Perigee59.2856
Mean Anonmoly300.8242
Mean Motion15.04775947
Decay Rate1.84E-06
L11 47978U 21024B 21173.89971118 .00000184 00000-0 32297-4 0 9992
L22 47978 53.0572 141.1462 0001122 59.2856 300.8242 15.04775947 15205

Live tracking and technical data element details for STARLINK-1647 (NORAD 47978). STARLINK-1647 can be tracked NOW for your location showing map with azimuth and elevation plus other details from your city location.

Track the satellite on the map from your city or location and see movement details for azimuth, elevation, latitude, longitude, range, height, and movement on the map or in text.







IsCatalogInMostPopularTable: catalog: 47978, numindb: 42
Update: records affected: 1



GetName: 47978 STARLINK-1647

Hit Count: updated at: Thu, 24 Jun 2021 03:17:29 GMT